Torna al catalogo

STARLINK-34062

AttivoComunicazioniVLEO
NORAD 64021·PAYLOAD·🇺🇸 United States

Lanciato May 14, 2025 da Cape Canaveral Space Force Station

Loading…

Prossimi Passaggi (prossime 24 ore)

TLE

AggiornatoSource: CelesTrak SupGP

Epoca: Sep 14, 2026, 22:40 UTC

1 64021C 25101AD  26257.94493056 -.00013152  00000+0 -47634-3 0  2571
2 64021  43.0036   8.9391 0001503 271.7358  19.7000 15.27587587    16

Traccia STARLINK-34062 in tempo reale con AllMySat

Download on the App Store